• In Hungary
  • List of Countries
  • For 7 days
  • Water Temperature
  • Satellite Maps
  • Weather Map
  • News
  • Weather Widgets
  • user-avatar
    Login

    Hourly Weather Perevodchykove

    Today, 16 October, Tuesday

    Time Temperature Precipitation Wind Pressure Humidity
    00:00 +14°C° 0 mm 2 mps 758 mmHg 72%
    01:00 +14°C° 0 mm 2 mps 758 mmHg 74%
    02:00 +14°C° 0 mm 2 mps 758 mmHg 75%
    03:00 +14°C° 0 mm 2 mps 758 mmHg 77%
    04:00 +13°C° 0 mm 1 mps 758 mmHg 78%
    05:00 +13°C° 0 mm 1 mps 757 mmHg 79%
    06:00 +14°C° 0 mm 1 mps 758 mmHg 76%
    07:00 +15°C° 0 mm 1 mps 758 mmHg 73%
    08:00 +16°C° 0 mm 1 mps 758 mmHg 70%
    09:00 +18°C° 0 mm 1 mps 758 mmHg 63%
    10:00 +19°C° 0 mm 2 mps 758 mmHg 57%
    11:00 +21°C° 0 mm 2 mps 758 mmHg 50%
    12:00 +23°C° 0 mm 2 mps 758 mmHg 47%
    13:00 +24°C° 0 mm 2 mps 757 mmHg 45%
    14:00 +25°C° 0 mm 1 mps 757 mmHg 42%
    15:00 +23°C° 0 mm 1 mps 757 mmHg 47%
    16:00 +22°C° 0 mm 1 mps 757 mmHg 51%
    17:00 +20°C° 0 mm 1 mps 757 mmHg 56%
    18:00 +19°C° 0 mm 1 mps 757 mmHg 58%
    19:00 +19°C° 0 mm 1 mps 757 mmHg 60%
    20:00 +18°C° 0 mm 1 mps 757 mmHg 63%
    21:00 +18°C° 0 mm 1 mps 757 mmHg 64%
    22:00 +16°C° 0 mm 1 mps 757 mmHg 66%
    23:00 +16°C° 0 mm 1 mps 757 mmHg 68%

    Tomorrow, 17 October, Wednesday

    Time Temperature Precipitation Wind Pressure Humidity
    00:00 +15°C° 0 mm 1 mps 757 mmHg 69%
    01:00 +15°C° 0 mm 1 mps 757 mmHg 70%
    02:00 +15°C° 0 mm 1 mps 757 mmHg 71%
    03:00 +14°C° 0 mm 1 mps 757 mmHg 72%
    04:00 +14°C° 0 mm 1 mps 757 mmHg 73%
    05:00 +14°C° 0 mm 1 mps 756 mmHg 74%
    06:00 +15°C° 0 mm 1 mps 757 mmHg 71%
    07:00 +15°C° 0 mm 1 mps 757 mmHg 68%
    08:00 +16°C° 0 mm 1 mps 757 mmHg 65%
    09:00 +19°C° 0 mm 1 mps 757 mmHg 59%
    10:00 +20°C° 0 mm 2 mps 757 mmHg 53%
    11:00 +21°C° 0 mm 2 mps 757 mmHg 48%
    12:00 +23°C° 0 mm 2 mps 757 mmHg 45%
    13:00 +24°C° 0 mm 2 mps 756 mmHg 43%
    14:00 +24°C° 0 mm 2 mps 756 mmHg 41%
    15:00 +23°C° 0 mm 2 mps 756 mmHg 46%
    16:00 +20°C° 0 mm 2 mps 756 mmHg 51%
    17:00 +19°C° 0 mm 2 mps 755 mmHg 55%
    18:00 +18°C° 0 mm 2 mps 756 mmHg 58%
    19:00 +17°C° 0 mm 2 mps 756 mmHg 60%
    20:00 +17°C° 0 mm 2 mps 756 mmHg 63%
    21:00 +16°C° 0 mm 2 mps 756 mmHg 64%
    22:00 +16°C° 0 mm 2 mps 756 mmHg 66%
    23:00 +15°C° 0 mm 2 mps 756 mmHg 67%

    Day after tomorrow, 18 October, Thursday

    Time Temperature Precipitation Wind Pressure Humidity
    00:00 +15°C° 0 mm 2 mps 756 mmHg 68%
    01:00 +14°C° 0 mm 2 mps 756 mmHg 69%
    02:00 +14°C° 0 mm 2 mps 756 mmHg 70%
    03:00 +14°C° 0 mm 2 mps 756 mmHg 71%
    04:00 +13°C° 0 mm 2 mps 755 mmHg 71%
    05:00 +13°C° 0 mm 2 mps 755 mmHg 72%
    06:00 +14°C° 0 mm 2 mps 755 mmHg 69%
    07:00 +14°C° 0 mm 2 mps 755 mmHg 66%
    08:00 +15°C° 0 mm 2 mps 755 mmHg 63%
    09:00 +17°C° 0 mm 2 mps 755 mmHg 56%
    10:00 +19°C° 0 mm 2 mps 755 mmHg 49%
    11:00 +21°C° 0 mm 3 mps 755 mmHg 43%
    12:00 +21°C° 0 mm 3 mps 755 mmHg 40%
    13:00 +22°C° 0 mm 3 mps 755 mmHg 38%
    14:00 +24°C° 0 mm 3 mps 754 mmHg 36%
    15:00 +21°C° 0 mm 3 mps 754 mmHg 40%
    16:00 +20°C° 0 mm 3 mps 754 mmHg 45%
    17:00 +18°C° 0 mm 2 mps 753 mmHg 49%
    18:00 +17°C° 0 mm 3 mps 753 mmHg 51%
    19:00 +17°C° 0 mm 3 mps 753 mmHg 53%
    20:00 +16°C° 0 mm 3 mps 753 mmHg 55%
    21:00 +16°C° 0 mm 3 mps 753 mmHg 55%
    22:00 +15°C° 0 mm 2 mps 753 mmHg 56%
    23:00 +15°C° 0 mm 2 mps 753 mmHg 57%

    19 October, Friday

    Time Temperature Precipitation Wind Pressure Humidity
    00:00 +14°C° 0 mm 2 mps 753 mmHg 57%
    01:00 +14°C° 0 mm 2 mps 753 mmHg 57%
    02:00 +13°C° 0 mm 2 mps 753 mmHg 57%
    03:00 +13°C° 0 mm 2 mps 753 mmHg 57%
    04:00 +13°C° 0 mm 2 mps 752 mmHg 58%
    05:00 +13°C° 0 mm 2 mps 752 mmHg 58%
    06:00 +13°C° 0 mm 2 mps 752 mmHg 57%
    07:00 +14°C° 0 mm 2 mps 752 mmHg 55%
    08:00 +15°C° 0 mm 2 mps 752 mmHg 53%
    09:00 +16°C° 0 mm 2 mps 752 mmHg 49%
    10:00 +18°C° 0 mm 3 mps 752 mmHg 44%
    11:00 +20°C° 0 mm 3 mps 752 mmHg 40%
    12:00 +21°C° 0 mm 3 mps 751 mmHg 38%
    13:00 +21°C° 0 mm 2 mps 751 mmHg 37%
    14:00 +23°C° 0 mm 2 mps 751 mmHg 35%
    15:00 +20°C° 0 mm 2 mps 750 mmHg 39%
    16:00 +19°C° 0 mm 2 mps 750 mmHg 43%
    17:00 +18°C° 0 mm 1 mps 750 mmHg 47%
    18:00 +18°C° 0 mm 1 mps 750 mmHg 49%
    19:00 +16°C° 0 mm 1 mps 750 mmHg 51%
    20:00 +15°C° 0 mm 1 mps 750 mmHg 53%
    21:00 +15°C° 0 mm 1 mps 750 mmHg 54%
    22:00 +14°C° 0 mm 1 mps 750 mmHg 55%
    23:00 +14°C° 0 mm 1 mps 749 mmHg 57%

    20 October, Saturday

    Time Temperature Precipitation Wind Pressure Humidity
    00:00 +14°C° 0 mm 1 mps 749 mmHg 58%
    01:00 +13°C° 0 mm 1 mps 749 mmHg 59%
    02:00 +13°C° 0 mm 1 mps 749 mmHg 60%
    03:00 +13°C° 0 mm 1 mps 749 mmHg 61%
    04:00 +13°C° 0 mm 1 mps 749 mmHg 61%
    05:00 +13°C° 0 mm 1 mps 749 mmHg 62%
    06:00 +13°C° 0 mm 1 mps 749 mmHg 61%
    07:00 +14°C° 0 mm 1 mps 749 mmHg 59%
    08:00 +14°C° 0 mm 1 mps 749 mmHg 58%
    09:00 +15°C° 0 mm 1 mps 749 mmHg 55%
    10:00 +16°C° 0 mm 1 mps 749 mmHg 53%
    11:00 +18°C° 0 mm 1 mps 749 mmHg 50%
    12:00 +18°C° 0 mm 1 mps 749 mmHg 50%
    13:00 +18°C° 0 mm 2 mps 749 mmHg 50%
    14:00 +18°C° 0 mm 2 mps 748 mmHg 49%
    15:00 +17°C° 0 mm 2 mps 748 mmHg 53%
    16:00 +16°C° 0 mm 2 mps 748 mmHg 57%
    17:00 +15°C° 0 mm 2 mps 748 mmHg 61%
    18:00 +15°C° 0 mm 2 mps 748 mmHg 62%
    19:00 +14°C° 0 mm 2 mps 748 mmHg 64%
    20:00 +14°C° 0 mm 2 mps 748 mmHg 65%
    21:00 +13°C° 0 mm 2 mps 748 mmHg 68%
    22:00 +12°C° 0 mm 3 mps 748 mmHg 71%
    23:00 +12°C° 0 mm 3 mps 748 mmHg 73%

    21 October, Sunday

    Time Temperature Precipitation Wind Pressure Humidity
    00:00 +11°C° 0 mm 3 mps 748 mmHg 78%
    01:00 +11°C° 0 mm 3 mps 748 mmHg 82%
    02:00 +10°C° 0 mm 3 mps 748 mmHg 87%
    03:00 +10°C° 0 mm 3 mps 748 mmHg 89%
    04:00 +10°C° 0 mm 4 mps 748 mmHg 92%
    05:00 +10°C° 0 mm 4 mps 748 mmHg 94%
    06:00 +10°C° 0 mm 4 mps 748 mmHg 91%
    07:00 +9°C° 0 mm 5 mps 749 mmHg 87%
    08:00 +10°C° 0 mm 5 mps 749 mmHg 83%
    09:00 +10°C° 0 mm 6 mps 749 mmHg 76%
    10:00 +11°C° 0 mm 6 mps 749 mmHg 68%
    11:00 +11°C° 0 mm 6 mps 750 mmHg 60%
    12:00 +13°C° 0 mm 6 mps 750 mmHg 56%
    13:00 +13°C° 0 mm 6 mps 750 mmHg 51%
    14:00 +13°C° 0 mm 6 mps 750 mmHg 46%
    15:00 +12°C° 0 mm 5 mps 750 mmHg 48%
    16:00 +10°C° 0 mm 5 mps 750 mmHg 49%
    17:00 +8°C° 0 mm 4 mps 750 mmHg 51%
    18:00 +8°C° 0 mm 4 mps 751 mmHg 53%
    19:00 +7°C° 0 mm 4 mps 751 mmHg 56%
    20:00 +6°C° 0 mm 4 mps 751 mmHg 59%
    21:00 +6°C° 0 mm 4 mps 751 mmHg 62%
    22:00 +5°C° 0 mm 4 mps 751 mmHg 65%
    23:00 +5°C° 0 mm 4 mps 752 mmHg 69%
    Show more